Regional Weather Roundup
Issued by NWS

Home | Current Version | Previous Version | Text Only | Print | Product List | Glossary Off
Versions: 1 2 3 4 5 6 7 8 9 10 11 12 13 14 15 16 17 18 19 20 21 22 23 24 25 26 27 28 29 30 31 32 33 34 35 36 37 38 39 40 41 42 43 44 45 46 47 48 49 50

000
ASUS43 KIND 270209
RWRIN

WEATHER ROUNDUP FOR INDIANA
NATIONAL WEATHER SERVICE INDIANAPOLIS IN
1000 PM EDT SUN APR 26 2015

NOTE: "FAIR" INDICATES FEW OR NO CLOUDS BELOW 12,000 FEET WITH NO
SIGNIFICANT WEATHER AND/OR OBSTRUCTIONS TO VISIBILITY.

* - STATION DOES NOT REPORT WEATHER SUCH AS PRECIPITATION OR FOG.

+ - STATION NOT QUALITY CONTROLLED BY THE NATIONAL WEATHER SERVICE.
    USE DATA WITH CAUTION...ESPECIALLY DEWPOINT AND RELATIVE
    HUMIDITY OBSERVATIONS.

INZ001>003-010>013-019-020-270300-
NORTHWEST INDIANA

CITY           SKY/WX    TMP DP  RH WIND       PRES   REMARKS
GARY /AIRPORT/ PTCLDY    45  27  49 N7        30.02S
KNOX *+        CLEAR     37  16  41 N6        29.97S
LA PORTE +     CLEAR     44  29  55 N13       29.98S
MICHIGAN CITY+ CLEAR     37  27  65 N5        30.00R
MONTICELLO +   CLEAR     43  31  63 N8        29.97S
VALPARAISO     CLEAR     41  27  57 N7        29.99S

$$

LMZ046-743>745-270300-
SOUTHERN LAKE MICHIGAN

STATION/POSITION TIME  TEMP    WIND        PRES    WAVE
                       AIR SEA DIR/SP/G            HT
                 (UTC) (F)     (DEG/KT/KT) (MB)    (FT)
BURNS HARBOR     0200   44      50/  9/ 11 1016.3S
MICHIGAN CITY    0200   42     360/  7/  7   N/A
5NW MICH CITY    0200   42 45   10/  6/ 10   N/A     3

$$

INZ004-005-014>016-021>024-270300-
NORTH CENTRAL INDIANA

CITY           SKY/WX    TMP DP  RH WIND       PRES   REMARKS
GOSHEN         CLOUDY    47  29  49 NW9       29.94R
LOGANSPORT +   CLEAR     45  28  53 NW9       29.97R
PERU/GRISSOM   CLEAR     46  32  58 NW8       29.95R
ROCHESTER +    CLEAR     46  30  53 NW8       29.96R
SOUTH BEND     CLEAR     44  23  43 N10       29.97S
WARSAW +       CLEAR     45  30  57 NW8       29.94S

$$

INZ006>009-017-018-025>027-270300-
NORTHEAST INDIANA

CITY           SKY/WX    TMP DP  RH WIND       PRES   REMARKS
ANGOLA *+      CLOUDY    52  37  58 NW5       29.92R
AUBURN +       CLOUDY    46  32  57 W6        29.92R
FORT WAYNE     PTCLDY    49  32  52 NW5       29.93R
HUNTINGTON +   CLOUDY    49  32  52 NW9       29.93R

$$

INZ028-029-035-036-043>045-051>053-270300-
WEST CENTRAL INDIANA

CITY           SKY/WX    TMP DP  RH WIND       PRES   REMARKS
CRAWFORDSVL +  CLEAR     45  27  50 N10G16    29.97R
GREENCASTLE +  CLEAR     46  30  53 N7        29.96R
LAFAYETTE      CLEAR     45  29  53 N12       29.98R
TERRE HAUTE    CLEAR     50  33  52 N10       29.97R

$$

INZ030>032-037>040-046>048-054>057-064-065-270300-
CENTRAL INDIANA

CITY           SKY/WX    TMP DP  RH WIND       PRES   REMARKS
CP ATTERBURY + PTCLDY    46  36  66 NW3       29.93S
COLUMBUS       MOCLDY    48  36  61 NW7       29.93R
FISHERS *+     PTCLDY    48  39  71 N7        29.94R
FRANKFORT +    CLEAR     46  34  62 NW10      29.98R
GREENWOOD *+   CLEAR     48  32  53 CALM      29.94R
INDIANAPOLIS   PTCLDY    50  34  54 NW12      29.93R
-EAGLE CREEK   PTCLDY    50  35  56 N14       29.94R
KOKOMO *+      CLEAR     46  34  61 N9        29.95R
MARION +       CLOUDY    50  33  52 N8        29.94R
MT COMFORT *+  PTCLDY    48  27  43 NW5       29.93R
SHELBYVILLE    MOCLDY    49  38  65 NW5       29.92R
ZIONSVILLE +   CLEAR     48  34  58 N14       29.95R

$$

INZ033-034-041-042-049-050-058-059-270300-
EAST CENTRAL INDIANA

CITY           SKY/WX    TMP DP  RH WIND       PRES   REMARKS
MUNCIE         CLOUDY    50  38  63 NW6       29.92R

$$

INZ060-061-067>069-081>083-085>088-270300-
SOUTHWEST INDIANA

CITY           SKY/WX    TMP DP  RH WIND       PRES   REMARKS
EVANSVILLE     CLEAR     56  37  49 N9        29.94R
HUNTINGBURG *+ CLEAR     54  36  50 N8        29.93R
WASHINGTON +   CLEAR     47  38  69 N6        29.95R

$$

INZ062-063-066-070>080-084-089>092-270300-
SOUTH CENTRAL AND SOUTHEAST INDIANA

CITY           SKY/WX    TMP DP  RH WIND       PRES   REMARKS
BEDFORD +      CLEAR     50  34  53 N3        29.93R
BLOOMINGTON    CLEAR     48  35  60 CALM      29.93R
MADISON *+     CLEAR     50  34  53 CALM      29.93R
NORTH VERNON + PTCLDY    50  36  57 CALM      29.92R
SEYMOUR +      PTCLDY    52  36  54 NW6       29.92R

$$



USA.gov is the U.S. government's official web portal to all federal, state and local government web resources and services.